Regional Weather Roundup
Issued by NWS

Home | Current Version | Previous Version | Graphics & Text | Print | Product List | Glossary On
Versions: 1 2 3 4 5 6 7 8 9 10 11 12 13 14 15 16 17 18 19 20 21 22 23 24 25 26 27 28 29 30 31 32 33 34 35 36 37 38 39 40 41 42 43 44 45 46 47 48 49 50
923
ASUS43 KBIS 210410
RWRND

NORTH DAKOTA REGIONAL WEATHER ROUNDUP
NATIONAL WEATHER SERVICE BISMARCK ND
1100 PM CDT THU JUL 20 2017

NOTE: "FAIR" INDICATES FEW OR NO CLOUDS BELOW 12,000 FEET WITH NO
SIGNIFICANT WEATHER AND/OR OBSTRUCTIONS TO VISIBILITY.


NDZ001>003-009>011-017-210500-
NORTHWEST NORTH DAKOTA

CITY           SKY/WX    TMP DP  RH WIND       PRES   REMARKS
WILLISTON      CLOUDY    78  59  51 E10       29.83S
MINOT          CLOUDY    70  62  76 MISG      29.90R
MINOT AFB      CLOUDY    70  62  75 E12       29.87F
$$

NDZ018>021-031>035-040>046-210500-
SOUTHWEST NORTH DAKOTA

CITY           SKY/WX    TMP DP  RH WIND       PRES   REMARKS
BISMARCK       CLOUDY    73  60  63 E12G20    29.84F
DICKINSON      PTCLDY    70  60  70 SE14      29.80F
GARRISON         N/A     74  57  55 SE8G22    29.85R
HETTINGER ARPT CLOUDY    71  61  70 SE14      29.87R
$$

NDZ004>008-012>016-024-026-027-054-210500-
NORTHEAST NORTH DAKOTA

CITY           SKY/WX    TMP DP  RH WIND       PRES   REMARKS
GRAND FORKS    CLOUDY    74  66  76 E7        29.91S
GRND FRKS AFB  CLOUDY    71  64  77 NE5       29.92S
DEVILS LAKE    CLOUDY    79  65  62 S17       29.89F
$$

NDZ022-023-025-028>030-036>039-047>053-210500-
SOUTHEAST NORTH DAKOTA

CITY           SKY/WX    TMP DP  RH WIND       PRES   REMARKS
FARGO          CLOUDY    75  68  78 SE7       29.93R
JAMESTOWN      CLOUDY    76  66  71 SE12      29.88F
$$





USA.gov is the U.S. government's official web portal to all federal, state and local government web resources and services.